FALCON 9 DEB (53092 NORAD) Tracking and Keplerian Element Data

This shows tracking and keplerian element data for the satellite.

Feedback or suggestion? Click here.




ElementValue
Catalog53092
NameFALCON 9 DEB
Epoch Orbit894
Epoch Day247.98843908
Epoch Year2022
RAAN73.3949
Inclination97.6445
Eccentricity0.0006021
Argument of Perigee286.9483
Mean Anonmoly73.1148
Mean Motion16.25804803
Decay Rate0.02499675
L11 53092U 22077BB 22247.98843908 .02499675 26050-5 83257-3 0 9991
L22 53092 97.6445 73.3949 0006021 286.9483 73.1148 16.25804803 8942

Live tracking and technical data element details for FALCON 9 DEB (NORAD 53092). FALCON 9 DEB can be tracked NOW for your location showing map with azimuth and elevation plus other details from your city location.

Track the satellite on the map from your city or location and see movement details for azimuth, elevation, latitude, longitude, range, height, and movement on the map or in text.







IsCatalogInMostPopularTable: catalog: 53092, numindb: 6
Update: records affected: 1



GetName: 53092 FALCON 9 DEB

Hit Count: updated at: Wed, 28 Sep 2022 21:48:37 GMT